Location: Newark
(35.2672°N, 80.7344°W)
Time: 18:19:59
(UTC+00:00)

A-11 Canister half - Pass Details

Date: 25 January 2020
Orbit: 1525 x 1684 km, 47.3° (Epoch: 17 February)

Event Time Altitude Azimuth Distance (km) Brightness Sun altitude
Rises 02:39:43 0° 293° (WNW) 4,719 12.2 -48.2°
Reaches altitude 10° 02:43:01 10° 300° (WNW) 3,754 11.5 -48.9°
Enters shadow 02:47:52 30° 323° (NW) 2,556 10.3 -49.8°
